Location: Asheville, NC
(35.6000°N, 82.5500°W)
Time: 19:46:03
(UTC-04:00)

XW-2F - Pass Details

Date: 10 March 2018
Orbit: 506 x 527 km, 97.5° (Epoch: 23 June)

Event Time Altitude Azimuth Distance (km) Brightness Sun altitude
Rises 06:02:51 0° 23° (NNE) 2,649 ? -10.0°
Reaches altitude 10° 06:05:08 10° 34° (NE) 1,761 ? -9.5°
Maximum altitude 06:08:31 31° 97° (E) 943 ? -8.8°
Drops below altitude 10° 06:11:54 10° 161° (SSE) 1,757 ? -8.2°
Sets 06:14:11 0° 172° (S) 2,643 ? -7.7°
